Lapse_Rate
4.9 4.8 4.6 4.3 4.5 4.9 5.1 5.0 4.7 5.0 4.9 5.0 5.2 5.6 5.4 5.0 5.0 5.3 5.5 5.6 5.5 5.6 5.6 5.8 6.1 6.6 6.6 6.6 6.6 6.6 6.7 6.7 6.6 6.6 6.7 6.8 6.8 6.9
4.7 4.5 4.4 4.1 4.4 4.5 4.4 4.7 5.0 5.2 5.1 5.1 5.2 5.2 5.0 5.0 5.1 5.3 5.5 5.4 5.3 5.4 5.5 5.8 6.0 6.3 6.3 6.2 6.2 6.2 6.3 6.3 6.5 6.6 6.5 6.3 6.5 6.8
4.3 4.3 4.2 4.3 4.2 4.5 4.3 4.5 5.1 5.1 5.1 5.1 5.1 5.0 5.1 5.4 5.4 5.3 5.3 5.1 5.2 5.4 5.6 5.7 5.8 6.0 6.0 6.0 5.8 5.9 5.9 6.0 6.0 6.2 6.4 6.4 6.2 6.3
4.2 4.3 4.3 4.4 4.5 4.5 4.5 4.4 5.2 5.1 5.2 5.3 5.3 5.2 5.4 5.4 5.3 5.4 5.3 5.3 5.2 5.3 5.5 5.8 5.8 5.8 5.9 5.8 5.6 5.6 5.7 5.7 5.8 5.8 5.8 6.0 6.2 6.3
3.9 4.3 4.1 3.9 4.4 4.5 4.5 4.1 4.8 5.0 5.1 5.3 5.4 5.3 5.3 5.1 5.1 5.1 4.9 5.0 5.1 5.2 5.3 5.3 5.4 5.4 5.2 5.2 5.4 5.5 5.6 5.8 5.9 5.7 5.5 5.5 5.5 5.8
4.1 4.0 4.2 4.1 4.6 4.7 3.8 3.9 4.1 5.0 5.2 5.5 5.3 5.2 5.0 4.7 4.8 4.9 5.0 4.8 5.0 5.0 5.0 4.9 5.0 5.0 5.1 5.2 5.4 5.5 5.6 5.7 6.2 6.2 6.0 6.0 5.8 5.7
4.2 4.2 4.0 4.2 4.5 4.8 4.1 4.0 4.2 4.8 5.3 5.2 5.3 5.2 4.8 4.7 4.7 4.8 4.7 4.9 5.1 4.9 4.8 4.9 5.1 5.3 5.5 5.5 5.5 5.8 6.1 6.7 6.7 7.1 7.2 7.2 7.1 6.9
4.4 3.8 3.8 4.4 4.6 4.7 4.1 4.2 4.2 5.2 5.2 5.1 5.0 4.7 4.5 4.7 4.6 4.7 4.7 4.7 4.7 5.0 4.9 5.3 5.4 5.5 5.6 5.9 6.1 6.8 7.2 7.2 7.4 7.6 7.8 7.8 7.8 7.8
3.8 3.7 4.3 4.4 4.7 4.5 4.7 4.2 5.1 5.2 5.1 5.0 4.9 4.7 4.7 4.8 4.6 4.6 4.7 4.8 4.9 5.0 4.9 5.2 5.8 5.7 6.3 6.8 6.9 7.0 7.0 7.0 7.1 7.3 7.5 7.5 7.5 7.6
3.9 4.0 4.3 4.7 4.7 4.8 4.7 5.1 5.1 5.1 4.8 4.8 4.6 4.9 4.9 4.8 4.7 4.7 4.8 4.8 4.9 5.0 5.2 5.5 6.0 6.5 6.8 6.7 6.7 6.6 6.7 6.6 6.6 6.7 6.7 6.7 6.9 7.0
4.0 4.6 4.7 5.0 4.8 5.0 5.1 5.0 5.0 5.0 5.1 5.0 5.0 4.8 4.7 4.6 4.7 4.8 4.7 4.9 5.6 6.0 5.9 5.9 6.5 6.7 6.6 6.6 6.4 6.3 6.3 6.2 6.1 5.9 5.9 5.9 6.1 6.3
4.8 4.7 5.2 5.2 5.1 4.9 4.8 4.8 4.8 4.9 5.0 4.9 4.7 4.8 4.8 4.7 4.6 4.7 5.4 6.0 6.3 6.6 6.3 6.3 6.4 6.1 6.5 6.6 6.4 6.2 6.2 5.9 5.7 5.6 5.3 5.2 5.3 5.5
5.0 5.4 4.8 5.2 4.9 4.9 5.0 5.0 4.8 4.8 4.7 4.8 4.8 4.7 4.6 4.8 4.8 5.2 5.5 6.0 5.9 6.1 5.7 5.6 5.7 5.7 5.4 5.7 6.1 5.9 5.9 6.0 6.0 5.7 5.2 4.7 4.6 4.6
5.3 5.5 5.3 5.0 5.0 5.0 5.1 4.8 4.7 4.7 4.7 4.7 4.7 4.8 4.9 5.1 5.3 5.7 5.7 5.8 5.6 5.7 5.7 5.4 5.5 5.3 5.3 5.7 5.8 5.9 5.9 5.9 5.6 5.3 5.2 4.8 4.2 4.0
5.2 5.1 5.2 5.1 5.1 5.1 4.9 4.8 4.9 5.0 4.8 4.7 4.8 5.2 5.2 5.4 5.5 5.6 5.8 5.7 5.6 5.5 5.3 5.0 5.0 5.0 4.9 5.2 5.2 5.4 5.5 5.7 5.5 5.0 4.8 4.7 4.4 4.2
5.1 5.0 5.0 5.0 5.2 5.2 5.0 5.0 5.1 4.8 4.8 5.0 5.0 4.9 5.1 5.4 5.6 5.6 5.6 5.5 5.6 5.5 5.1 4.9 4.8 4.6 5.0 4.9 4.8 5.1 5.1 5.3 5.6 5.2 4.7 4.9 4.9 4.5
4.8 5.1 5.1 5.3 5.3 5.0 4.8 5.0 5.1 5.0 4.7 4.6 4.5 5.2 5.5 5.5 5.5 5.4 5.3 5.3 5.4 5.3 5.2 5.0 4.8 4.7 4.8 4.6 4.9 4.8 5.1 5.6 5.2 5.1 4.8 5.2 5.4 4.7
5.3 5.5 5.5 5.5 5.4 5.4 5.0 4.6 4.5 4.0 3.9 4.4 5.1 5.3 5.3 5.3 5.3 5.3 5.2 5.2 5.1 5.1 5.0 4.9 4.8 5.1 5.0 5.1 5.0 5.0 5.2 5.3 5.0 5.1 5.1 5.4 6.3 5.4
5.9 5.6 5.4 5.3 5.1 4.8 4.5 4.2 3.8 3.8 4.3 5.0 5.3 5.3 5.1 5.1 5.1 5.1 5.1 5.0 5.0 4.9 4.8 4.7 4.7 4.8 4.8 5.1 5.5 5.2 5.5 5.2 5.0 5.2 5.2 5.6 6.0 6.1
5.5 5.2 4.9 4.7 4.5 4.2 3.9 3.6 3.7 4.3 5.0 5.3 5.2 5.1 5.0 5.0 5.1 5.1 4.9 4.9 4.7 4.7 4.9 4.8 4.7 4.8 4.5 4.6 5.0 5.8 5.4 5.5 4.8 5.2 5.6 5.9 6.0 6.0
4.9 4.6 4.6 4.5 4.3 3.9 3.6 3.7 4.4 5.0 5.4 5.3 5.2 5.1 5.0 5.0 5.0 4.8 4.7 4.6 4.6 4.6 4.8 4.9 4.9 4.8 4.5 4.4 4.5 5.3 5.7 4.7 4.5 4.7 5.4 5.7 6.2 6.3
4.8 4.7 4.5 4.1 3.7 3.6 3.8 4.4 5.0 5.3 5.4 5.3 5.2 5.0 4.9 4.8 4.7 4.6 4.5 4.6 4.6 4.7 4.8 4.9 4.9 4.8 4.6 4.2 4.3 5.0 5.6 5.3 4.5 4.4 4.3 4.7 5.5 6.3
5.4 4.9 4.5 4.1 3.8 3.9 4.3 4.7 5.1 5.3 5.2 5.1 4.9 4.9 4.8 4.7 4.5 4.5 4.6 4.6 4.7 4.8 4.7 4.8 4.9 4.8 4.7 4.1 4.2 4.8 4.9 4.9 5.2 5.6 5.2 5.0 5.5 5.7
Wind_Speed
5 5 5 4 4 3 3 4 2 1 1 1 3 8 8 5 4 4 6 9 16 11 7 6 11 15 19 18 17 19 20 20 23 22 21 21 21 21
4 5 4 5 5 2 2 2 2 1 1 3 2 3 5 5 8 8 9 13 13 11 5 6 9 15 18 18 18 20 20 22 22 22 21 21 21 21
5 5 7 6 2 2 2 1 0 0 1 3 2 3 2 1 4 8 12 15 12 13 17 8 13 14 16 16 19 19 22 22 21 21 21 21 20 22
5 6 6 4 2 2 1 1 3 3 2 4 3 3 2 2 2 3 7 13 14 16 17 14 15 14 15 16 15 21 20 21 21 20 18 22 24 25
5 7 5 4 2 3 2 3 1 1 2 2 3 3 3 2 3 4 5 8 13 18 20 21 20 16 15 19 19 19 19 20 15 20 23 23 24 27
6 5 6 4 4 4 3 3 1 2 3 3 2 3 2 3 3 3 4 4 6 16 20 20 18 19 20 22 21 21 21 22 23 22 25 28 29 30
6 6 9 8 10 8 4 6 6 5 4 4 4 4 4 4 4 3 5 6 8 11 6 7 15 16 15 16 21 18 25 23 23 27 30 30 29 29
8 6 7 7 7 7 6 5 4 2 2 2 3 4 5 5 4 5 6 7 6 5 10 10 16 8 12 13 22 26 24 27 30 32 29 29 29 30
7 6 7 6 8 5 6 4 3 5 5 3 3 4 6 6 5 6 8 8 9 10 11 11 7 8 12 16 22 25 30 32 30 27 28 29 34 33
6 8 7 8 7 5 3 3 2 3 8 6 5 3 6 7 6 6 8 10 9 7 8 10 8 9 9 16 25 31 30 26 25 30 34 32 34 33
6 5 4 8 11 7 3 1 3 3 7 8 11 12 14 18 18 7 7 8 9 7 3 7 7 11 10 11 16 23 22 34 34 31 33 34 35 35
8 8 8 11 11 8 2 2 3 1 4 4 5 11 15 17 20 14 7 8 7 7 0 8 10 9 7 8 7 24 20 25 30 31 34 34 35 24
7 7 6 14 11 8 4 2 2 3 3 3 5 7 5 4 9 10 5 1 5 8 12 9 9 9 8 13 10 12 17 17 19 23 27 32 33 29
4 5 9 14 10 6 4 6 6 3 3 5 4 2 2 3 3 8 14 16 15 13 17 15 8 8 11 13 14 11 10 16 15 11 19 25 27 32
5 14 18 13 9 5 8 10 7 3 6 3 2 2 3 3 7 9 14 15 15 15 16 16 7 11 10 12 14 13 13 12 11 9 12 12 12 11
8 8 6 6 5 3 2 9 6 6 5 2 3 3 2 2 4 4 3 5 6 7 14 20 16 10 10 10 12 13 12 12 13 12 11 12 15 19
4 3 2 2 3 5 6 7 5 3 1 2 1 2 3 5 4 3 4 7 8 9 9 7 14 14 10 13 13 12 13 12 10 11 14 15 13 12
2 2 2 4 4 2 0 2 1 2 1 2 2 2 4 5 5 6 7 7 9 9 9 8 9 10 11 12 17 11 11 12 13 14 14 14 15 12
1 1 3 3 2 2 1 1 2 0 2 1 1 2 4 6 7 7 7 8 9 9 9 9 9 10 12 13 10 21 14 13 13 14 12 13 15 15
1 3 3 3 2 2 1 0 1 2 1 1 2 2 3 5 6 7 7 9 9 10 10 10 8 9 11 14 16 15 26 14 13 14 15 14 16 33
6 5 2 0 0 1 1 1 1 1 1 2 3 3 2 4 6 7 8 11 10 10 12 11 10 17 11 12 12 14 12 26 25 16 17 15 16 16
2 2 1 1 1 1 1 1 1 2 2 2 2 2 2 3 6 7 8 9 10 10 11 10 11 10 11 11 14 19 15 15 26 32 33 28 15 16
3 2 2 1 2 1 1 1 1 1 2 2 2 2 2 4 4 7 8 9 10 10 11 12 10 10 11 11 15 14 22 19 15 17 14 26 32 33
Wind_Direction
102 99 108 92 68 66 37 64 67 323 351 325 108 102 78 54 32 17 330 345 318 300 288 326 341 346 345 341 342 340 338 335 332 333 331 330 328 328
116 119 114 95 86 78 109 71 79 176 250 54 6 63 58 14 322 352 352 325 312 310 284 335 336 338 339 335 333 334 329 329 329 329 328 327 326 325
128 126 85 85 107 146 139 69 140 229 250 306 353 4 10 348 315 331 330 316 321 327 326 327 325 328 327 325 321 323 325 324 324 322 323 324 326 324
133 114 111 120 54 328 49 252 51 2 358 296 316 309 334 290 304 342 320 313 321 315 321 333 329 330 326 311 316 314 314 317 316 319 326 321 317 316
128 105 128 111 208 226 140 22 95 288 263 266 301 319 283 0 358 6 311 327 329 320 331 330 321 313 323 323 318 309 312 311 331 321 317 316 315 313
111 115 111 82 15 60 71 28 327 347 326 315 310 317 355 338 10 358 337 333 334 326 313 304 315 332 326 316 312 317 315 323 317 318 316 312 309 306
81 91 84 91 82 67 53 32 24 20 1 355 348 352 336 354 342 349 333 327 312 297 294 333 324 318 305 318 311 315 317 315 316 312 310 307 305 303
140 132 117 115 105 98 100 79 68 43 28 341 330 331 325 326 342 354 333 322 316 312 338 310 301 296 310 303 317 309 311 315 312 310 306 307 305 302
150 157 155 146 133 159 178 186 220 210 196 192 239 272 294 325 340 334 311 298 293 300 300 296 302 296 313 312 312 313 311 307 304 306 307 309 305 295
154 161 157 156 155 129 66 19 321 201 216 207 215 252 281 305 284 282 293 288 285 285 293 296 314 307 319 318 309 303 299 305 310 311 304 303 302 297
151 140 167 125 137 129 89 294 274 269 282 254 265 274 282 282 286 277 269 283 289 292 304 303 321 316 312 298 289 305 316 314 307 304 304 303 302 298
171 170 160 125 138 131 133 273 263 9 20 351 313 295 281 276 275 259 260 268 296 308 215 321 315 323 309 285 313 306 299 300 301 304 303 303 301 296
166 155 153 150 146 149 171 277 352 349 317 285 278 264 249 262 275 286 275 229 286 282 299 301 300 295 279 299 299 302 299 298 298 297 299 301 298 294
142 131 147 156 152 166 196 240 244 276 268 263 260 287 290 270 272 310 293 275 266 269 284 281 286 291 297 295 297 304 299 296 296 300 295 293 295 297
89 125 139 150 164 202 223 234 242 231 246 245 266 265 247 252 305 299 289 295 290 289 294 292 284 290 285 291 297 302 305 305 294 289 296 290 291 292
117 129 153 169 177 221 234 219 220 233 238 218 242 244 286 343 302 286 301 307 304 301 298 290 283 288 295 294 298 299 297 289 293 290 294 302 301 290
159 115 136 176 208 224 237 233 213 221 248 259 296 339 313 299 297 314 314 314 302 302 303 299 296 301 297 298 294 288 290 288 296 310 308 297 291 287
126 156 204 221 214 199 251 288 310 268 281 30 311 293 306 312 317 317 304 299 299 301 304 313 316 311 299 285 281 301 306 309 305 299 294 288 288 285
123 257 231 216 195 194 214 242 254 11 69 345 311 308 318 315 307 299 301 303 302 303 308 313 308 303 303 303 306 304 300 297 295 293 289 283 290 293
200 231 235 218 196 195 232 318 30 14 345 332 306 286 280 288 298 302 306 301 302 307 305 301 301 303 301 304 303 300 297 301 296 296 297 290 282 284
216 234 250 287 177 105 123 121 126 259 272 256 265 282 289 306 299 299 299 302 305 303 300 301 299 299 298 297 297 300 299 297 297 295 299 295 296 297
220 180 171 106 104 118 159 181 238 273 295 314 299 290 283 290 299 305 307 303 300 298 297 301 307 304 305 303 299 301 303 302 298 292 292 287 288 291
197 158 114 84 53 13 360 16 10 346 316 296 288 283 299 308 302 303 300 298 300 302 304 302 307 305 299 300 299 299 299 304 308 306 296 297 295 291